Location: Brachbach
(49.1847°N, 9.7240°E)
Time: 13:37:27
(UTC+00:00)

Nimbus 7 Rocket - Pass Details

Date: 17 August 2024
Orbit: 921 x 965 km, 99.4° (Epoch: 14 September)

Event Time Altitude Azimuth Distance (km) Brightness Sun altitude
Rises 22:33:27 0° 30° (NNE) 3,582 8.1 -26.8°
Reaches altitude 10° 22:37:12 10° 54° (NE) 2,629 7.0 -26.9°
Maximum altitude 22:40:15 14° 86° (E) 2,319 6.4 -27.0°
Enters shadow 22:40:27 14° 88° (E) 2,320 6.4 -27.0°
